When you browse on this site, cookies collect data to enhance your experience and personalize the content and advertising you see.
Visit our Privacy Policy to learn more. By continuing to use the site, you agree to this use of cookies and data.
  • In Deutschland
  • Länderverzeichnis
  • Für 7 Tage
  • Wassertemperatur
  • Wetterkarte
  • Widgets
  • user-avatar
    Anmelden

    Stündliche Wetter Bergen

    Heute, 29 März, Sonntag

    Zeit Temperatur Niederschläge Wind Luftdruck Luftfeuchtigkeit
    00:00 -6°C° 0 mm 5 m/S 773 mmHg 66%
    01:00 -6°C° 0 mm 5 m/S 773 mmHg 68%
    02:00 -6°C° 0 mm 5 m/S 773 mmHg 69%
    03:00 -6°C° 0 mm 5 m/S 773 mmHg 70%
    04:00 -6°C° 0 mm 5 m/S 773 mmHg 71%
    05:00 -6°C° 0 mm 5 m/S 773 mmHg 72%
    06:00 -5°C° 0 mm 4 m/S 774 mmHg 68%
    07:00 -3°C° 0 mm 4 m/S 773 mmHg 67%
    08:00 -1°C° 0 mm 3 m/S 773 mmHg 66%
    09:00 0°C° 0 mm 3 m/S 772 mmHg 64%
    10:00 -1°C° 0.7 mm 4 m/S 771 mmHg 75%
    11:00 -1°C° 0.7 mm 4 m/S 770 mmHg 85%
    12:00 -1°C° 0 mm 4 m/S 770 mmHg 96%
    13:00 -1°C° 0.6 mm 5 m/S 769 mmHg 94%
    14:00 0°C° 0.6 mm 5 m/S 768 mmHg 93%
    15:00 -1°C° 0.6 mm 6 m/S 767 mmHg 91%
    16:00 -1°C° 0.5 mm 6 m/S 767 mmHg 93%
    17:00 -1°C° 0.5 mm 6 m/S 766 mmHg 95%
    18:00 -1°C° 0.5 mm 7 m/S 766 mmHg 97%
    19:00 -1°C° 0.3 mm 7 m/S 766 mmHg 96%
    20:00 -1°C° 0.3 mm 7 m/S 765 mmHg 95%
    21:00 0°C° 0.3 mm 7 m/S 765 mmHg 94%
    22:00 0°C° 0.2 mm 7 m/S 765 mmHg 94%
    23:00 -1°C° 0.2 mm 6 m/S 765 mmHg 94%

    Morgen, 30 März, Montag

    Zeit Temperatur Niederschläge Wind Luftdruck Luftfeuchtigkeit
    00:00 -1°C° 0.2 mm 6 m/S 765 mmHg 94%
    01:00 -1°C° 0 mm 6 m/S 765 mmHg 92%
    02:00 -1°C° 0 mm 6 m/S 765 mmHg 91%
    03:00 -2°C° 0 mm 7 m/S 764 mmHg 89%
    04:00 -2°C° 0 mm 6 m/S 765 mmHg 88%
    05:00 -3°C° 0 mm 6 m/S 765 mmHg 87%
    06:00 -2°C° 0 mm 5 m/S 766 mmHg 86%
    07:00 -1°C° 0 mm 5 m/S 766 mmHg 81%
    08:00 0°C° 0 mm 5 m/S 766 mmHg 76%
    09:00 +1°C° 0 mm 4 m/S 766 mmHg 72%
    10:00 +1°C° 0 mm 4 m/S 766 mmHg 70%
    11:00 +3°C° 0 mm 4 m/S 766 mmHg 68%
    12:00 +3°C° 0 mm 4 m/S 766 mmHg 67%
    13:00 +3°C° 0 mm 4 m/S 766 mmHg 67%
    14:00 +3°C° 0 mm 4 m/S 766 mmHg 66%
    15:00 +3°C° 0 mm 4 m/S 766 mmHg 66%
    16:00 +1°C° 0 mm 4 m/S 766 mmHg 71%
    17:00 +1°C° 0 mm 3 m/S 766 mmHg 75%
    18:00 0°C° 0 mm 3 m/S 766 mmHg 79%
    19:00 +1°C° 0 mm 2 m/S 766 mmHg 80%
    20:00 +1°C° 0 mm 2 m/S 766 mmHg 81%
    21:00 +2°C° 0 mm 1 m/S 766 mmHg 81%
    22:00 +1°C° 0 mm 1 m/S 766 mmHg 82%
    23:00 +1°C° 0 mm 1 m/S 766 mmHg 82%

    übermorgen, 31 März, Dienstag

    Zeit Temperatur Niederschläge Wind Luftdruck Luftfeuchtigkeit
    00:00 -1°C° 0 mm 2 m/S 766 mmHg 82%
    01:00 -1°C° 0 mm 2 m/S 766 mmHg 83%
    02:00 0°C° 0 mm 3 m/S 765 mmHg 83%
    03:00 0°C° 0 mm 3 m/S 764 mmHg 83%
    04:00 0°C° 0.2 mm 3 m/S 764 mmHg 87%
    05:00 +1°C° 0.2 mm 3 m/S 763 mmHg 91%
    06:00 +1°C° 0.2 mm 3 m/S 763 mmHg 95%
    07:00 +1°C° 0.3 mm 3 m/S 762 mmHg 95%
    08:00 +2°C° 0.3 mm 3 m/S 761 mmHg 96%
    09:00 +2°C° 0.3 mm 3 m/S 760 mmHg 97%
    10:00 +2°C° 0.3 mm 3 m/S 760 mmHg 96%
    11:00 +3°C° 0.3 mm 3 m/S 759 mmHg 96%
    12:00 +3°C° 0.3 mm 4 m/S 759 mmHg 95%
    13:00 +3°C° 0.2 mm 4 m/S 758 mmHg 95%
    14:00 +3°C° 0.2 mm 4 m/S 758 mmHg 95%
    15:00 +4°C° 0.2 mm 4 m/S 757 mmHg 94%
    16:00 +3°C° 0.2 mm 4 m/S 756 mmHg 94%
    17:00 +3°C° 0.2 mm 4 m/S 756 mmHg 95%
    18:00 +3°C° 0.2 mm 3 m/S 756 mmHg 95%
    19:00 +3°C° 0.2 mm 4 m/S 755 mmHg 95%
    20:00 +3°C° 0.2 mm 4 m/S 755 mmHg 96%
    21:00 +3°C° 0.2 mm 4 m/S 755 mmHg 96%
    22:00 +3°C° 0.4 mm 4 m/S 754 mmHg 96%
    23:00 +3°C° 0.4 mm 4 m/S 754 mmHg 96%

    1 April, Mittwoch

    Zeit Temperatur Niederschläge Wind Luftdruck Luftfeuchtigkeit
    00:00 +3°C° 0.4 mm 4 m/S 754 mmHg 96%
    01:00 +3°C° 0.3 mm 3 m/S 753 mmHg 97%
    02:00 +3°C° 0.3 mm 3 m/S 752 mmHg 97%
    03:00 +4°C° 0.3 mm 2 m/S 752 mmHg 98%
    04:00 +3°C° 0.8 mm 3 m/S 751 mmHg 98%
    05:00 +3°C° 0.8 mm 3 m/S 750 mmHg 98%
    06:00 +3°C° 0.8 mm 4 m/S 750 mmHg 98%
    07:00 +2°C° 1.1 mm 5 m/S 749 mmHg 98%
    08:00 +3°C° 1.1 mm 5 m/S 748 mmHg 97%
    09:00 +3°C° 1.1 mm 6 m/S 747 mmHg 97%
    10:00 +3°C° 2.1 mm 6 m/S 746 mmHg 98%
    11:00 +3°C° 2.1 mm 6 m/S 745 mmHg 98%
    12:00 +3°C° 2.1 mm 7 m/S 745 mmHg 98%
    13:00 +3°C° 1 mm 6 m/S 744 mmHg 97%
    14:00 +3°C° 1 mm 6 m/S 743 mmHg 96%
    15:00 +4°C° 1 mm 6 m/S 743 mmHg 95%
    16:00 +3°C° 0.3 mm 6 m/S 743 mmHg 95%
    17:00 +3°C° 0.3 mm 6 m/S 743 mmHg 94%
    18:00 +3°C° 0.3 mm 6 m/S 744 mmHg 94%
    19:00 +2°C° 0 mm 5 m/S 744 mmHg 93%
    20:00 +2°C° 0 mm 5 m/S 744 mmHg 92%
    21:00 +1°C° 0 mm 4 m/S 744 mmHg 91%
    22:00 +2°C° 0.2 mm 3 m/S 744 mmHg 93%
    23:00 +2°C° 0.2 mm 2 m/S 744 mmHg 95%

    2 April, Donnerstag

    Zeit Temperatur Niederschläge Wind Luftdruck Luftfeuchtigkeit
    00:00 +3°C° 0.2 mm 1 m/S 744 mmHg 97%
    01:00 +2°C° 0.3 mm 2 m/S 743 mmHg 97%
    02:00 +1°C° 0.3 mm 3 m/S 742 mmHg 97%
    03:00 0°C° 0.3 mm 4 m/S 741 mmHg 97%
    04:00 -1°C° 0.6 mm 6 m/S 740 mmHg 95%
    05:00 0°C° 0.6 mm 7 m/S 739 mmHg 93%
    06:00 0°C° 0.6 mm 9 m/S 737 mmHg 92%
    07:00 -1°C° 1.2 mm 11 m/S 735 mmHg 90%
    08:00 -1°C° 1.2 mm 12 m/S 734 mmHg 88%
    09:00 -1°C° 1.2 mm 14 m/S 732 mmHg 86%
    10:00 -1°C° 0.8 mm 14 m/S 731 mmHg 79%
    11:00 -2°C° 0.8 mm 13 m/S 730 mmHg 71%
    12:00 -4°C° 0.8 mm 13 m/S 730 mmHg 63%
    13:00 -4°C° 0.6 mm 11 m/S 729 mmHg 72%
    14:00 -4°C° 0.6 mm 8 m/S 728 mmHg 80%
    15:00 -4°C° 0.6 mm 6 m/S 728 mmHg 89%
    16:00 -4°C° 1.4 mm 9 m/S 728 mmHg 91%
    17:00 -3°C° 1.4 mm 12 m/S 729 mmHg 92%
    18:00 -4°C° 1.4 mm 15 m/S 729 mmHg 94%
    19:00 -4°C° 0.6 mm 15 m/S 730 mmHg 88%
    20:00 -2°C° 0.6 mm 14 m/S 731 mmHg 83%
    21:00 -2°C° 0.6 mm 13 m/S 732 mmHg 77%
    22:00 -3°C° 0 mm 11 m/S 733 mmHg 78%
    23:00 -4°C° 0 mm 10 m/S 734 mmHg 80%

    3 April, Freitag

    Zeit Temperatur Niederschläge Wind Luftdruck Luftfeuchtigkeit
    00:00 -5°C° 0 mm 9 m/S 735 mmHg 82%
    01:00 -5°C° 0 mm 9 m/S 736 mmHg 81%
    02:00 -6°C° 0 mm 9 m/S 737 mmHg 80%
    03:00 -6°C° 0 mm 9 m/S 738 mmHg 80%
    04:00 -6°C° 0 mm 8 m/S 739 mmHg 80%
    05:00 -7°C° 0 mm 7 m/S 741 mmHg 80%
    06:00 -6°C° 0 mm 6 m/S 742 mmHg 80%
    07:00 -4°C° 0.1 mm 6 m/S 743 mmHg 77%
    08:00 -3°C° 0.1 mm 6 m/S 744 mmHg 75%
    09:00 0°C° 0.1 mm 5 m/S 745 mmHg 72%
    10:00 -1°C° 0.7 mm 7 m/S 745 mmHg 76%
    11:00 -2°C° 0.7 mm 8 m/S 746 mmHg 81%
    12:00 -3°C° 0.7 mm 9 m/S 747 mmHg 85%
    13:00 -3°C° 0.1 mm 9 m/S 747 mmHg 79%
    14:00 -2°C° 0.1 mm 8 m/S 748 mmHg 73%
    15:00 -1°C° 0.1 mm 7 m/S 748 mmHg 68%
    16:00 -2°C° 0.2 mm 7 m/S 749 mmHg 70%
    17:00 -3°C° 0.2 mm 6 m/S 749 mmHg 73%
    18:00 -4°C° 0.2 mm 6 m/S 750 mmHg 76%
    19:00 -4°C° 0.2 mm 5 m/S 750 mmHg 78%
    20:00 -5°C° 0.2 mm 5 m/S 751 mmHg 81%
    21:00 -4°C° 0.2 mm 4 m/S 751 mmHg 83%
    22:00 -4°C° 0.1 mm 4 m/S 752 mmHg 83%
    23:00 -4°C° 0.1 mm 4 m/S 752 mmHg 83%
    Mehr zeigen